[[{"header":{"parameterUnit":"m.s-1","parameterCategory":2,"la1":30.2991,"la2":30.254,"lo1":-89.0895,"lo2":-89.0444,"dx":0.0017,"dy":0.0017,"nx":28,"ny":28,"refTime":"2023-01-30T15:00:00:Z","depth":"0","parameterNumber":2,"parameterNumberName":"U-component_of_CURRENTS"},"data":[0,0,0,0,0,0,0,0,0,0,0,0,0,0,0,0,0,0,0,0,0,0,0,0,0,0,0,0,0,0,0,0,0,0,0,0,0,0,0,0,0,0,0,0,0,0,0,0,0,0,0,0,0,0,0,0,0,0,0.1934,0.1933,0,0.1833,0.1831,0.1829,0.1758,0.1758,0.1758,0.1758,0.1619,0.1615,0.1611,0,0,0,0,0,0,0,0,0,0,0,0,0,0.1975,0.1974,0.1934,0.1933,0.1933,0.1833,0.1831,0.1829,0.1758,0.1758,0.1758,0.1758,0.162,0.1616,0.1611,0,0,0,0,0,0,0,0,0,0,0,0,0,0.1917,0.1974,0.1934,0.1891,0.1886,0.1833,0.1831,0.1828,0.1758,0.1758,0.1758,0.1758,0.1621,0.1616,0.161,0.1572,0,0,0.1593,0.159,0,0,0,0,0,0,0,0,0.1921,0.1915,0.1898,0.1894,0.1889,0.1814,0.1795,0.1743,0.1758,0.1799,0.1758,0.1758,0.1685,0.1674,0.1645,0.1566,0.156,0.1592,0.1589,0.1586,0.1585,0,0,0,0,0,0,0,0.1925,0.1918,0.1887,0.1897,0.1892,0.1846,0.1838,0.1784,0.1736,0.1795,0.1792,0.1792,0.1682,0.1651,0.1641,0.1557,0.1593,0.1587,0.1584,0.1582,0.1441,0.144,0,0,0,0,0,0,0.1956,0.1923,0.189,0.1884,0.1913,0.1846,0.1836,0.1832,0.1737,0.1726,0.1792,0.1789,0.166,0.1648,0.1636,0.1575,0.1586,0.1581,0.1578,0.1441,0.144,0.144,0,0,0,0,0,0,0.1957,0.1954,0.1894,0.1907,0.1897,0.1846,0.1841,0.183,0.1804,0.1737,0.1722,0.1779,0.166,0.1644,0.159,0.157,0.1579,0.1573,0.1441,0.1441,0.144,0.1459,0,0,0,0,0,0,0.1959,0.1955,0.1951,0.1909,0.1898,0.186,0.1842,0.1828,0.1808,0.1803,0.1721,0.1708,0.1659,0.1599,0.1584,0.1562,0.1569,0.1442,0.1441,0.144,0.1459,0.1459,0.146,0,0,0,0,0,0.1961,0.1947,0.1951,0.1947,0.1898,0.186,0.1848,0.1808,0.1808,0.1786,0.174,0.1711,0.1585,0.1594,0.1577,0.1552,0.1442,0.1441,0.144,0.1459,0.1459,0.146,0,0,0,0,0,0,0.1944,0.1939,0.1942,0.1923,0.19,0.1851,0.1826,0.1815,0.1761,0.1756,0.1701,0.1683,0.1624,0.1594,0.1605,0.1513,0.151,0.1506,0.153,0.153,0.153,0.1515,0.1564,0,0,0,0,0,0.195,0.1946,0.193,0.1914,0.1907,0.1874,0.1853,0.1832,0.179,0.1766,0.1717,0.1664,0.1606,0.1576,0.1518,0.1469,0.1457,0.1446,0.1446,0.1447,0.1424,0.142,0.1418,0.1438,0.1438,0.1438,0,0,0.1935,0.1936,0.1929,0.1913,0.1889,0.1851,0.1858,0.1829,0.178,0.1759,0.168,0.1658,0.1594,0.1531,0.1504,0.1504,0.1436,0.1446,0.1446,0.1423,0.1419,0.1417,0.1415,0.1437,0.1437,0.1437,0,0,0.1901,0.1912,0.1894,0.188,0.1864,0.1837,0.1838,0.18,0.1765,0.1709,0.1679,0.1661,0.1565,0.1525,0.149,0.1463,0.1437,0.1444,0.143,0.1427,0.1425,0.1424,0.1416,0.1413,0.1447,0.1447,0.1447,0,0.1881,0.1859,0.1878,0.1855,0.1827,0.1834,0.1786,0.1751,0.1697,0.1667,0.1684,0.1586,0.1557,0.1479,0.1473,0.1461,0.1451,0.1434,0.1428,0.1426,0.1424,0.1416,0.1413,0.1448,0.1448,0.1448,0.1448,0,0.1826,0.1811,0.1797,0.177,0.1743,0.1707,0.1677,0.1637,0.1621,0.1604,0.1549,0.1533,0.1478,0.1479,0.146,0.1424,0.142,0.1431,0.143,0.1424,0.1416,0.1412,0.1449,0.1449,0.1449,0.1449,0,0,0.176,0.1757,0.1749,0.1715,0.1694,0.1651,0.1585,0.152,0.1476,0.1468,0.1413,0.1379,0.1418,0.1383,0.1386,0.1397,0.1399,0.1407,0.1406,0.1402,0.1383,0.1381,0.1377,0.1411,0.141,0.1409,0.1387,0,0.1698,0.1639,0.1653,0.1564,0.1518,0.1507,0.1451,0.1406,0.138,0.1337,0.1354,0.1321,0.1365,0.1362,0.1377,0.1378,0.1388,0.1403,0.1384,0.1383,0.1386,0.1372,0.1343,0.132,0.1384,0.1383,0.1383,0,0.1619,0.1591,0.1507,0.1454,0.1435,0.1389,0.129,0.1247,0.1215,0.1215,0.1214,0.1232,0.123,0.129,0.13,0.1305,0.1337,0.1363,0.1363,0.1344,0.1374,0.1333,0.1311,0.1272,0.1377,0.1377,0.1378,0,0.1524,0.1473,0.1396,0.1376,0.133,0.1275,0.1245,0.1207,0.1171,0.1146,0.1146,0.1149,0.1156,0.1191,0.1251,0.1268,0.1273,0.1306,0.1332,0.1333,0.1292,0.129,0.1228,0.1317,0.1317,0.1317,0.1317,0,0.1431,0.1366,0.1348,0.1299,0.1211,0.121,0.1131,0.1104,0.1092,0.1068,0.1098,0.108,0.1135,0.1148,0.1208,0.1249,0.124,0.1311,0.1321,0.1299,0.1298,0.125,0.1188,0.1316,0.1316,0.1316,0.1316,0,0.1328,0.1323,0.1226,0.1176,0.1164,0.1094,0.1073,0.1033,0.1044,0.1005,0.1002,0.1013,0.1035,0.1091,0.1139,0.1193,0.1184,0.1261,0.1228,0.1235,0.1226,0.1165,0.1005,0.0978,0.1272,0.1272,0.1271,0,0.1271,0.1217,0.1136,0.1086,0.106,0.0999,0.0981,0.0996,0.0973,0.0965,0.0943,0.0949,0.0946,0.101,0.1093,0.1169,0.1147,0.1205,0.124,0.12,0.1141,0.1062,0.1047,0.1198,0.1197,0.1196,0.1196,0,0.1162,0.1133,0.1061,0.0976,0.0929,0.0891,0.0868,0.086,0.0886,0.0881,0.0869,0.086,0.0901,0.0937,0.1033,0.1106,0.11,0.1194,0.1156,0.1063,0.0965,0.0955,0.1237,0.119,0.1191,0.1191,0.1191,0.1192,0.1083,0.1018,0.0944,0.0859,0.0821,0.0805,0.0784,0.0789,0.0791,0.0785,0.0797,0.0772,0.0811,0.0929,0.1015,0.1096,0.1039,0.1111,0.1037,0.0962,0.0928,0.1193,0.1161,0.1162,0.1162,0.1162,0.1163,0,0.0993,0.0941,0.0847,0.0769,0.0737,0.0737,0.0728,0.0723,0.0744,0.0712,0.0712,0.0691,0.0735,0.0817,0.0903,0.0922,0.0935,0.0921,0.0804,0.0802,0.1052,0.1046,0.0984,0.0984,0.0984,0.0984,0.0984,0.0984,0.0936,0.0852,0.0817,0.074,0.0699,0.0677,0.0686,0.0671,0.0645,0.0599,0.055,0.0525,0.0495,0.0561,0.0651,0.0701,0.0647,0.0604,0.0592,0.0778,0.0791,0.0803,0.0788,0.0673,0.0672,0.0364,0.0361,0.0359]},{"header":{"parameterUnit":"m.s-1","parameterCategory":2,"la1":30.2991,"la2":30.254,"lo1":-89.0895,"lo2":-89.0444,"dx":0.0017,"dy":0.0017,"nx":28,"ny":28,"refTime":"2023-01-30T15:00:00:Z","depth":"0","parameterNumber":3,"parameterNumberName":"V-component_of_CURRENTS"},"data":[0,0,0,0,0,0,0,0,0,0,0,0,0,0,0,0,0,0,0,0,0,0,0,0,0,0,0,0,0,0,0,0,0,0,0,0,0,0,0,0,0,0,0,0,0,0,0,0,0,0,0,0,0,0,0,0,0,0,-0.299,-0.2989,0,-0.2895,-0.2893,-0.2892,-0.281,-0.2809,-0.2809,-0.2808,-0.2681,-0.2678,-0.2675,0,0,0,0,0,0,0,0,0,0,0,0,0,-0.3003,-0.3004,-0.299,-0.2989,-0.2988,-0.2895,-0.2893,-0.2891,-0.281,-0.2809,-0.2809,-0.2808,-0.2682,-0.2678,-0.2675,0,0,0,0,0,0,0,0,0,0,0,0,0,-0.2958,-0.3004,-0.299,-0.2939,-0.2933,-0.2895,-0.2893,-0.2891,-0.281,-0.2809,-0.2808,-0.2808,-0.2683,-0.2679,-0.2674,-0.2665,0,0,-0.2661,-0.2659,0,0,0,0,0,0,0,0,-0.2961,-0.2958,-0.2947,-0.2942,-0.2936,-0.2866,-0.2851,-0.2815,-0.281,-0.2853,-0.2808,-0.2807,-0.2743,-0.2734,-0.2713,-0.2659,-0.2654,-0.2661,-0.2658,-0.2657,-0.2655,0,0,0,0,0,0,0,-0.2964,-0.2961,-0.2948,-0.2946,-0.294,-0.2888,-0.2881,-0.2843,-0.2801,-0.2849,-0.2844,-0.284,-0.2739,-0.2717,-0.2709,-0.2652,-0.2661,-0.2657,-0.2655,-0.2653,-0.254,-0.254,0,0,0,0,0,0,-0.299,-0.2964,-0.2951,-0.2946,-0.2951,-0.2889,-0.2881,-0.2887,-0.2801,-0.2789,-0.2841,-0.2836,-0.2725,-0.2714,-0.2704,-0.2632,-0.2657,-0.2653,-0.265,-0.2541,-0.254,-0.254,0,0,0,0,0,0,-0.2991,-0.299,-0.2955,-0.2955,-0.2947,-0.2891,-0.2897,-0.2885,-0.2874,-0.2796,-0.2782,-0.2843,-0.2724,-0.271,-0.2669,-0.2629,-0.2651,-0.2647,-0.2541,-0.2541,-0.254,-0.2524,0,0,0,0,0,0,-0.2992,-0.2991,-0.3008,-0.2957,-0.2948,-0.2938,-0.2898,-0.2884,-0.2874,-0.2867,-0.2793,-0.2779,-0.2722,-0.2676,-0.2665,-0.2623,-0.2643,-0.2542,-0.2541,-0.254,-0.2525,-0.2523,-0.2521,0,0,0,0,0,-0.2993,-0.3022,-0.301,-0.3008,-0.2973,-0.2939,-0.2929,-0.2882,-0.2875,-0.2869,-0.2817,-0.2782,-0.2662,-0.2673,-0.266,-0.2616,-0.2542,-0.2541,-0.254,-0.2526,-0.2523,-0.2521,0,0,0,0,0,0,-0.3029,-0.3015,-0.3001,-0.3022,-0.2986,-0.2926,-0.2928,-0.29,-0.2856,-0.2854,-0.2784,-0.2766,-0.2714,-0.2683,-0.2696,-0.2584,-0.2594,-0.2591,-0.2588,-0.2585,-0.2583,-0.2476,-0.264,0,0,0,0,0,-0.305,-0.3077,-0.3033,-0.3052,-0.3042,-0.2992,-0.2977,-0.2942,-0.2897,-0.2877,-0.2827,-0.2768,-0.27,-0.266,-0.2613,-0.2558,-0.2533,-0.2522,-0.252,-0.2519,-0.2425,-0.2408,-0.2394,-0.2537,-0.2537,-0.2537,0,0,-0.3059,-0.3069,-0.3073,-0.3063,-0.3038,-0.2996,-0.298,-0.2965,-0.2893,-0.2872,-0.2792,-0.2774,-0.2692,-0.2618,-0.2591,-0.2583,-0.248,-0.2517,-0.2516,-0.242,-0.2405,-0.2391,-0.2378,-0.2536,-0.2536,-0.2536,0,0,-0.3089,-0.3111,-0.3126,-0.3104,-0.3081,-0.3032,-0.3035,-0.2982,-0.2923,-0.2864,-0.2815,-0.2764,-0.2694,-0.2592,-0.2536,-0.2499,-0.2487,-0.2514,-0.2387,-0.2376,-0.2363,-0.2351,-0.2363,-0.2352,-0.2493,-0.2493,-0.2493,0,-0.3092,-0.3098,-0.312,-0.3118,-0.307,-0.3049,-0.2994,-0.2938,-0.2871,-0.2764,-0.284,-0.2669,-0.2652,-0.2462,-0.2449,-0.2483,-0.249,-0.2406,-0.237,-0.2357,-0.2345,-0.236,-0.2348,-0.2492,-0.2492,-0.2492,-0.2492,0,-0.3108,-0.3101,-0.3112,-0.3084,-0.3047,-0.3008,-0.2923,-0.2851,-0.2806,-0.2713,-0.2569,-0.2563,-0.2427,-0.2451,-0.2429,-0.23,-0.2345,-0.2393,-0.2372,-0.2329,-0.235,-0.2337,-0.2491,-0.2491,-0.2491,-0.2492,0,0,-0.3083,-0.3107,-0.3098,-0.304,-0.3007,-0.2945,-0.283,-0.2642,-0.2497,-0.2473,-0.2293,-0.2218,-0.2208,-0.2143,-0.2149,-0.2131,-0.2117,-0.2211,-0.2211,-0.2211,-0.2108,-0.204,-0.2021,-0.2179,-0.2175,-0.2172,-0.2181,0,-0.3045,-0.3019,-0.3033,-0.292,-0.2856,-0.2779,-0.2657,-0.2497,-0.238,-0.2225,-0.2148,-0.2044,-0.2092,-0.2073,-0.2042,-0.21,-0.2071,-0.2109,-0.2152,-0.2152,-0.2087,-0.1997,-0.1908,-0.1896,-0.2169,-0.2166,-0.2165,0,-0.2999,-0.2977,-0.2892,-0.2755,-0.2717,-0.264,-0.2365,-0.2259,-0.203,-0.1965,-0.1823,-0.1802,-0.1705,-0.1841,-0.1816,-0.1849,-0.1929,-0.2002,-0.2006,-0.1903,-0.2054,-0.197,-0.1863,-0.1806,-0.2145,-0.2147,-0.2148,0,-0.2904,-0.2832,-0.2744,-0.2712,-0.2594,-0.2467,-0.2358,-0.2133,-0.2004,-0.1799,-0.1749,-0.1605,-0.1616,-0.1642,-0.1755,-0.1799,-0.1795,-0.1896,-0.1884,-0.1885,-0.1779,-0.1773,-0.1585,-0.1851,-0.1851,-0.1851,-0.1851,0,-0.2826,-0.2737,-0.2678,-0.263,-0.2414,-0.2375,-0.2126,-0.1992,-0.1851,-0.1715,-0.1624,-0.1557,-0.158,-0.158,-0.1678,-0.1711,-0.173,-0.1782,-0.184,-0.1781,-0.1775,-0.1697,-0.1691,-0.1851,-0.1851,-0.1851,-0.1851,0,-0.275,-0.2736,-0.26,-0.2462,-0.2379,-0.2222,-0.203,-0.188,-0.1788,-0.1641,-0.1611,-0.1523,-0.1521,-0.1534,-0.1609,-0.163,-0.1617,-0.17,-0.1626,-0.1667,-0.1562,-0.156,-0.134,-0.1307,-0.1647,-0.1645,-0.1643,0,-0.2703,-0.2663,-0.2483,-0.2345,-0.227,-0.2054,-0.1918,-0.1824,-0.1743,-0.1633,-0.1608,-0.1532,-0.1484,-0.1495,-0.1485,-0.1529,-0.1547,-0.1482,-0.1499,-0.1444,-0.1489,-0.1483,-0.1473,-0.141,-0.1407,-0.1404,-0.1401,0,-0.2628,-0.26,-0.2496,-0.2228,-0.2053,-0.19,-0.1751,-0.1722,-0.1673,-0.1619,-0.1609,-0.1566,-0.1468,-0.1403,-0.1367,-0.1398,-0.1352,-0.1419,-0.1372,-0.1223,-0.1188,-0.1226,-0.1557,-0.1374,-0.1377,-0.1379,-0.138,-0.1382,-0.2549,-0.2466,-0.2344,-0.207,-0.1896,-0.1819,-0.1748,-0.1707,-0.1683,-0.1662,-0.1639,-0.1559,-0.1383,-0.1282,-0.1282,-0.11,-0.1175,-0.1094,-0.109,-0.1085,-0.1011,-0.1257,-0.1131,-0.1132,-0.1133,-0.1134,-0.1135,0,-0.2426,-0.2383,-0.2166,-0.1928,-0.1768,-0.1723,-0.1683,-0.1692,-0.1738,-0.1649,-0.1634,-0.1436,-0.1266,-0.1101,-0.0855,-0.0793,-0.0799,-0.0768,-0.0739,-0.0749,-0.0969,-0.0914,-0.0719,-0.0719,-0.0719,-0.0719,-0.0719,-0.0719,-0.2337,-0.2216,-0.2135,-0.1872,-0.1734,-0.1692,-0.1727,-0.1759,-0.1724,-0.1611,-0.1455,-0.134,-0.1121,-0.077,-0.0543,-0.0521,-0.0501,-0.0453,-0.0498,-0.0662,-0.0693,-0.0723,-0.0667,-0.0423,-0.0423,-0.0256,-0.0254,-0.0253]}],[{"header":{"parameterUnit":"m.s-1","parameterCategory":2,"la1":30.2991,"la2":30.254,"lo1":-89.0895,"lo2":-89.0444,"dx":0.0017,"dy":0.0017,"nx":28,"ny":28,"refTime":"2023-01-30T15:00:00:Z","depth":"2","parameterNumber":2,"parameterNumberName":"U-component_of_CURRENTS"},"data":[0,0,0,0,0,0,0,0,0,0,0,0,0,0,0,0,0,0,0,0,0,0,0,0,0,0,0,0,0,0,0,0,0,0,0,0,0,0,0,0,0,0,0,0,0,0,0,0,0,0,0,0,0,0,0,0,0,0,0.0383,0.0383,0,0.0392,0.0392,0.0392,0.0398,0.0398,0.0398,0.0398,0.055,0.0554,0.0558,0,0,0,0,0,0,0,0,0,0,0,0,0,0.0407,0.0407,0.0383,0.0383,0.0383,0.0392,0.0392,0.0392,0.0398,0.0398,0.0398,0.0398,0.0548,0.0553,0.0558,0,0,0,0,0,0,0,0,0,0,0,0,0,0.0406,0.0406,0.0383,0.0386,0.0386,0.0392,0.0392,0.0393,0.0398,0.0398,0.0398,0.0398,0.0547,0.0553,0.0559,0.0601,0,0,0.0578,0.0581,0,0,0,0,0,0,0,0,0.0406,0.0405,0.0385,0.0385,0.0386,0.0392,0.0456,0.0469,0.0398,0.0395,0.0398,0.0398,0.0509,0.0518,0.0521,0.0608,0.0615,0.0578,0.0582,0.0585,0.0587,0,0,0,0,0,0,0,0.0406,0.0405,0.0388,0.0385,0.0385,0.0399,0.0398,0.0458,0.0457,0.0396,0.0396,0.0394,0.0511,0.0515,0.0525,0.0617,0.0578,0.0584,0.0588,0.059,0.0865,0.0868,0,0,0,0,0,0,0.04,0.0405,0.0388,0.0388,0.0394,0.0398,0.0398,0.0392,0.0454,0.0461,0.0394,0.0394,0.0504,0.0518,0.0531,0.0621,0.0585,0.0591,0.0594,0.0861,0.0865,0.0869,0,0,0,0,0,0,0.04,0.0398,0.0388,0.0396,0.0395,0.0397,0.0391,0.0392,0.0411,0.045,0.0461,0.0414,0.0505,0.0522,0.0614,0.0626,0.0593,0.0599,0.0857,0.0863,0.0867,0.0779,0,0,0,0,0,0,0.0401,0.0398,0.0407,0.0395,0.0394,0.0403,0.0391,0.0392,0.0408,0.0409,0.0471,0.0483,0.0506,0.0605,0.062,0.0634,0.0604,0.0852,0.0859,0.0866,0.0778,0.0781,0.0784,0,0,0,0,0,0.0401,0.0408,0.0408,0.0406,0.0402,0.0404,0.0406,0.0407,0.041,0.0424,0.0478,0.0482,0.0659,0.0612,0.063,0.0645,0.0849,0.0857,0.0865,0.0776,0.078,0.0784,0,0,0,0,0,0,0.0431,0.0408,0.0408,0.041,0.0414,0.0404,0.0419,0.042,0.0469,0.0483,0.0519,0.0537,0.0618,0.0671,0.0619,0.0757,0.0759,0.0771,0.0686,0.069,0.0693,0.072,0.0609,0,0,0,0,0,0.0439,0.0436,0.0423,0.0431,0.0432,0.0431,0.0438,0.0439,0.0469,0.0488,0.0532,0.0604,0.0664,0.0707,0.077,0.0847,0.0871,0.0881,0.0884,0.0885,0.0928,0.0959,0.0966,0.0896,0.0896,0.0895,0,0,0.0456,0.0443,0.0444,0.0438,0.0441,0.0455,0.0436,0.045,0.0472,0.0504,0.057,0.0611,0.069,0.0761,0.0805,0.0806,0.0913,0.0895,0.0894,0.0938,0.0968,0.0974,0.0979,0.0901,0.09,0.0899,0,0,0.0479,0.0474,0.0477,0.0478,0.048,0.0486,0.0494,0.0501,0.0514,0.058,0.0603,0.0658,0.0768,0.0801,0.0838,0.0913,0.0921,0.0948,0.0982,0.1009,0.1013,0.1018,0.1006,0.101,0.0953,0.0953,0.0953,0,0.0504,0.0499,0.0485,0.0488,0.0487,0.0503,0.051,0.0539,0.058,0.0593,0.0609,0.0742,0.0784,0.0857,0.0888,0.091,0.0931,0.0934,0.1004,0.1009,0.1015,0.1003,0.1008,0.095,0.095,0.0951,0.0951,0,0.0521,0.0526,0.0531,0.0539,0.0539,0.0555,0.0568,0.0597,0.0623,0.0643,0.0718,0.0778,0.0851,0.0872,0.0909,0.0979,0.0978,0.0982,0.0967,0.1015,0.1001,0.1007,0.0945,0.0947,0.0948,0.0948,0,0,0.0553,0.0544,0.0551,0.055,0.056,0.0563,0.0599,0.0624,0.0654,0.0715,0.0734,0.0849,0.087,0.0923,0.0954,0.1006,0.1025,0.1031,0.1034,0.0972,0.1073,0.0972,0.097,0.1037,0.104,0.1041,0.1024,0,0.0577,0.0587,0.0569,0.0595,0.0597,0.0597,0.0624,0.0649,0.0689,0.0724,0.0775,0.0831,0.0892,0.0915,0.0976,0.1012,0.1053,0.103,0.1084,0.1085,0.0949,0.0978,0.083,0.0797,0.1031,0.1033,0.1033,0,0.0596,0.0595,0.0599,0.0597,0.0597,0.0613,0.0633,0.0671,0.0717,0.0731,0.0793,0.0831,0.0904,0.0941,0.105,0.1037,0.1079,0.1111,0.111,0.1067,0.1,0.0807,0.0801,0.1045,0.1044,0.1044,0.1043,0,0.0603,0.062,0.0617,0.0616,0.0618,0.061,0.0637,0.0674,0.0683,0.0743,0.0733,0.0838,0.0855,0.0956,0.103,0.1047,0.1128,0.1126,0.1076,0.1067,0.0983,0.0962,0.1222,0.1222,0.1222,0.1222,0.1222,0,0.0626,0.0632,0.0624,0.0614,0.0619,0.0623,0.0641,0.067,0.0684,0.0695,0.0751,0.0759,0.0875,0.0919,0.1011,0.105,0.11,0.1101,0.1071,0.0945,0.0922,0.1194,0.1191,0.1221,0.1222,0.1222,0.1222,0,0.0632,0.0636,0.0619,0.0607,0.0607,0.0617,0.0614,0.0632,0.0655,0.0653,0.0655,0.0687,0.0755,0.0843,0.0963,0.0983,0.105,0.1056,0.0879,0.0829,0.0973,0.0967,0.0989,0.0986,0.0983,0.098,0.0978,0,0.0647,0.0622,0.0589,0.0577,0.0568,0.0585,0.0582,0.061,0.0621,0.0617,0.0601,0.0632,0.0664,0.0746,0.0812,0.0893,0.0983,0.0763,0.078,0.0989,0.0957,0.0955,0.0953,0.0615,0.061,0.0606,0.0603,0,0.0623,0.0586,0.0573,0.0527,0.0516,0.0528,0.0539,0.0522,0.0556,0.0556,0.0562,0.0574,0.0606,0.059,0.0632,0.0681,0.0735,0.0682,0.0955,0.0693,0.0634,0.0603,0.0614,0.0568,0.0572,0.0574,0.0576,0.0578,0.0608,0.0585,0.0521,0.0492,0.0486,0.0479,0.0479,0.0474,0.0482,0.0459,0.0493,0.0441,0.0404,0.0397,0.0447,0.0477,0.0563,0.0503,0.0516,0.0534,0.049,0.0429,0.0314,0.0316,0.0317,0.0319,0.032,0,0.0587,0.0557,0.0488,0.0485,0.0468,0.0463,0.0452,0.0427,0.043,0.0364,0.0368,0.0207,0.0168,0.0183,0.0171,0.0204,0.0261,0.0188,0.0214,0.0243,0.0272,0.0219,-0.0031,-0.0031,-0.0031,-0.0031,0,0,0.0587,0.0538,0.0482,0.0464,0.0459,0.0459,0.0448,0.0363,0.028,0.0162,0.0075,0.006,0.004,-0.0062,-0.0035,-0.0051,0.0111,-0.0041,0.0216,0.0265,0.0294,0.0403,0.0347,0,0,0,0,0]},{"header":{"parameterUnit":"m.s-1","parameterCategory":2,"la1":30.2991,"la2":30.254,"lo1":-89.0895,"lo2":-89.0444,"dx":0.0017,"dy":0.0017,"nx":28,"ny":28,"refTime":"2023-01-30T15:00:00:Z","depth":"2","parameterNumber":3,"parameterNumberName":"V-component_of_CURRENTS"},"data":[0,0,0,0,0,0,0,0,0,0,0,0,0,0,0,0,0,0,0,0,0,0,0,0,0,0,0,0,0,0,0,0,0,0,0,0,0,0,0,0,0,0,0,0,0,0,0,0,0,0,0,0,0,0,0,0,0,0,0.0736,0.0737,0,0.0812,0.0814,0.0815,0.0805,0.0804,0.0802,0.0801,0.082,0.0822,0.0824,0,0,0,0,0,0,0,0,0,0,0,0,0,0.0612,0.0615,0.0736,0.0737,0.0737,0.0812,0.0814,0.0815,0.0806,0.0804,0.0802,0.08,0.0819,0.0822,0.0824,0,0,0,0,0,0,0,0,0,0,0,0,0,0.0678,0.0616,0.0736,0.0739,0.074,0.0812,0.0814,0.0815,0.0806,0.0804,0.0801,0.0799,0.0819,0.0822,0.0824,0.0888,0,0,0.0833,0.0835,0,0,0,0,0,0,0,0,0.0674,0.0683,0.0738,0.0739,0.074,0.0794,0.0777,0.0836,0.0807,0.0784,0.0801,0.0798,0.0806,0.081,0.0834,0.0889,0.089,0.0834,0.0835,0.0837,0.0837,0,0,0,0,0,0,0,0.067,0.068,0.0769,0.0739,0.074,0.0747,0.0754,0.0789,0.0808,0.0786,0.0785,0.0789,0.0806,0.0832,0.0835,0.089,0.0833,0.0836,0.0838,0.0839,0.096,0.0962,0,0,0,0,0,0,0.0656,0.0676,0.0767,0.0771,0.0697,0.0751,0.0759,0.0782,0.0809,0.0811,0.0791,0.0788,0.0828,0.0831,0.0835,0.0827,0.0836,0.0839,0.0841,0.0959,0.0961,0.0962,0,0,0,0,0,0,0.0653,0.0664,0.0764,0.0721,0.0734,0.0755,0.0781,0.0784,0.0773,0.0813,0.0813,0.0771,0.0826,0.0831,0.0871,0.083,0.0841,0.0843,0.0957,0.0959,0.0961,0.0864,0,0,0,0,0,0,0.065,0.0663,0.0661,0.0721,0.0736,0.0795,0.0783,0.0788,0.078,0.0777,0.0798,0.0799,0.0825,0.0866,0.0873,0.0834,0.0845,0.0955,0.0958,0.0961,0.0865,0.0863,0.086,0,0,0,0,0,0.0645,0.0663,0.0661,0.067,0.0737,0.0795,0.0804,0.0812,0.0781,0.079,0.0815,0.0796,0.0888,0.0871,0.0879,0.0839,0.0954,0.0957,0.0961,0.0867,0.0863,0.0861,0,0,0,0,0,0,0.0604,0.0665,0.0664,0.0696,0.0731,0.0791,0.0793,0.0795,0.0822,0.08,0.0828,0.0835,0.0855,0.0882,0.0862,0.0891,0.0913,0.0918,0.0839,0.0836,0.0834,0.0664,0.0848,0,0,0,0,0,0.0595,0.0623,0.0677,0.0696,0.071,0.0741,0.0755,0.0762,0.0798,0.0804,0.0819,0.0845,0.0885,0.0885,0.0933,0.0948,0.0945,0.093,0.0927,0.0925,0.0798,0.087,0.086,0.0973,0.0973,0.0973,0,0,0.0578,0.0617,0.0627,0.0688,0.071,0.0758,0.0744,0.0759,0.0728,0.0804,0.077,0.0842,0.0896,0.0921,0.0928,0.0924,0.09,0.0929,0.0925,0.0797,0.0872,0.086,0.085,0.0976,0.0975,0.0975,0,0,0.0582,0.0596,0.0624,0.0663,0.0697,0.0734,0.0729,0.077,0.0698,0.0697,0.0755,0.0787,0.0831,0.0864,0.0884,0.0894,0.0901,0.0934,0.0753,0.0829,0.0817,0.0807,0.0807,0.0797,0.0913,0.0913,0.0913,0,0.0546,0.0619,0.0637,0.0684,0.0705,0.0722,0.0754,0.0704,0.0736,0.0653,0.0658,0.0714,0.0775,0.0782,0.0775,0.087,0.0897,0.0757,0.0817,0.0807,0.0797,0.08,0.0791,0.0909,0.0909,0.091,0.091,0,0.0598,0.0645,0.0664,0.0736,0.0748,0.0789,0.0743,0.0635,0.0558,0.0562,0.0485,0.0566,0.0588,0.0637,0.0679,0.0662,0.0698,0.0823,0.0803,0.0778,0.0786,0.0777,0.0903,0.0904,0.0906,0.0907,0,0,0.0554,0.0678,0.068,0.064,0.0779,0.0719,0.0634,0.0549,0.0414,0.0388,0.0294,0.0304,0.0348,0.0368,0.0469,0.0473,0.0463,0.0573,0.058,0.0525,0.0569,0.0595,0.0589,0.0622,0.0619,0.0617,0.0605,0,0.059,0.0631,0.0728,0.07,0.0694,0.0644,0.0561,0.0445,0.037,0.0293,0.0248,0.0294,0.0258,0.0309,0.0287,0.0474,0.0431,0.0448,0.0632,0.0633,0.0624,0.0576,0.0613,0.0604,0.0597,0.0595,0.0594,0,0.063,0.0625,0.0642,0.0545,0.0529,0.0512,0.0262,0.0209,0.013,0.0082,0.0065,0.0153,0.0143,0.0183,0.0215,0.0239,0.0313,0.0401,0.041,0.0421,0.0641,0.0629,0.0589,0.058,0.0581,0.0582,0.0583,0,0.0532,0.0525,0.0486,0.0492,0.0448,0.0284,0.0226,0.0124,0.0067,0.0031,0.0079,0.0062,0.0121,0.0154,0.0247,0.0266,0.0324,0.0445,0.0481,0.0486,0.0527,0.0538,0.0405,0.0405,0.0405,0.0405,0.0405,0,0.0579,0.0502,0.0359,0.0364,0.0137,0.0125,0.0001,-0.0129,-0.007,-0.0032,0.0013,0.0047,0.0116,0.018,0.0236,0.0292,0.0316,0.0353,0.0466,0.0503,0.0511,0.0502,0.0514,0.0405,0.0405,0.0405,0.0405,0,0.0532,0.0542,0.0393,0.0222,0.0152,-0.0062,-0.005,-0.0101,-0.0091,-0.0026,0.0007,0.0072,0.0122,0.0178,0.0296,0.0303,0.0392,0.0411,0.0391,0.0496,0.0485,0.0493,0.0418,0.0419,0.0419,0.0419,0.0419,0,0.054,0.0502,0.0258,0.0157,0.0093,-0.0108,-0.0114,-0.0106,-0.0085,-0.0028,0.0012,0.0088,0.014,0.0268,0.0326,0.0395,0.041,0.0457,0.0468,0.0358,0.0477,0.0485,0.0491,0.0502,0.0503,0.0504,0.0505,0,0.0561,0.0465,0.0327,0.0107,0.0003,-0.0053,-0.0109,-0.0082,-0.0047,-0.0027,0.0003,0.0071,0.0178,0.0295,0.0391,0.0427,0.0448,0.0471,0.0416,0.0495,0.0439,0.0556,0.056,0.0511,0.051,0.051,0.051,0.0509,0.0502,0.0347,0.0214,-0.0048,-0.0082,-0.0045,-0.0041,-0.0041,-0.0008,-0.0016,0.0028,0.0116,0.0259,0.0408,0.0447,0.0451,0.0471,0.051,0.0508,0.0505,0.0518,0.0467,0.0541,0.0541,0.054,0.054,0.0539,0,0.0341,0.0241,0.0106,-0.0114,-0.0065,-0.0086,-0.0049,0.0002,0.0006,-0.0009,0.0012,0.0192,0.0348,0.0443,0.0485,0.0519,0.0478,0.0502,0.0502,0.0499,0.0496,0.0506,0.0527,0.0526,0.0525,0.0524,0,0,0.0248,0.0086,0.0009,-0.0046,-0.0096,-0.0024,0.0023,0.0068,0.0068,0.0061,0.0081,0.0214,0.0397,0.0437,0.0511,0.0518,0.0452,0.047,0.0496,0.0488,0.0481,0.0541,0.0561,0,0,0,0,0]}],[{"header":{"parameterUnit":"m.s-1","parameterCategory":2,"la1":30.2991,"la2":30.254,"lo1":-89.0895,"lo2":-89.0444,"dx":0.0017,"dy":0.0017,"nx":28,"ny":28,"refTime":"2023-01-30T15:00:00:Z","depth":"4","parameterNumber":2,"parameterNumberName":"U-component_of_CURRENTS"},"data":[0,0,0,0,0,0,0,0,0,0,0,0,0,0,0,0,0,0,0,0,0,0,0,0,0,0,0,0,0,0,0,0,0,0,0,0,0,0,0,0,0,0,0,0,0,0,0,0,0,0,0,0,0,0,0,0,0,0,-0.0639,-0.0639,0,-0.067,-0.067,-0.0671,-0.0712,-0.0713,-0.0713,-0.0714,-0.0813,-0.0815,-0.0817,0,0,0,0,0,0,0,0,0,0,0,0,0,-0.0613,-0.0613,-0.0639,-0.0639,-0.064,-0.067,-0.0671,-0.0671,-0.0712,-0.0713,-0.0713,-0.0714,-0.0812,-0.0815,-0.0817,0,0,0,0,0,0,0,0,0,0,0,0,0,-0.0634,-0.0614,-0.0639,-0.0662,-0.0664,-0.067,-0.0671,-0.0671,-0.0712,-0.0713,-0.0713,-0.0714,-0.0811,-0.0814,-0.0818,-0.0824,0,0,-0.0828,-0.0829,0,0,0,0,0,0,0,0,-0.0633,-0.0636,-0.0658,-0.066,-0.0663,-0.0686,-0.0697,-0.0725,-0.0712,-0.0696,-0.0714,-0.0714,-0.0775,-0.0781,-0.0788,-0.0829,-0.0833,-0.0828,-0.083,-0.0832,-0.0832,0,0,0,0,0,0,0,-0.0632,-0.0635,-0.0654,-0.0658,-0.0661,-0.0669,-0.0673,-0.0703,-0.0734,-0.0698,-0.07,-0.07,-0.0777,-0.0784,-0.079,-0.0835,-0.0828,-0.0831,-0.0833,-0.0834,-0.0997,-0.0999,0,0,0,0,0,0,-0.0622,-0.0633,-0.0653,-0.0655,-0.0647,-0.0669,-0.0674,-0.068,-0.0733,-0.074,-0.0699,-0.0701,-0.0778,-0.0787,-0.0794,-0.092,-0.0831,-0.0835,-0.0836,-0.0994,-0.0997,-0.1,0,0,0,0,0,0,-0.0622,-0.0624,-0.0652,-0.0642,-0.0646,-0.0668,-0.0675,-0.068,-0.0695,-0.0732,-0.0742,-0.071,-0.0779,-0.079,-0.086,-0.092,-0.0836,-0.0839,-0.0992,-0.0995,-0.0999,-0.1098,0,0,0,0,0,0,-0.0621,-0.0624,-0.0626,-0.0642,-0.0646,-0.0661,-0.0674,-0.068,-0.0692,-0.0696,-0.0745,-0.0754,-0.0781,-0.0855,-0.0863,-0.0923,-0.0842,-0.0989,-0.0993,-0.0997,-0.1092,-0.1104,-0.1115,0,0,0,0,0,-0.062,-0.0616,-0.0626,-0.0629,-0.0649,-0.0661,-0.0664,-0.0684,-0.0692,-0.07,-0.0758,-0.0753,-0.0888,-0.086,-0.0869,-0.0931,-0.0987,-0.0992,-0.0997,-0.1086,-0.1102,-0.1115,0,0,0,0,0,0,-0.0606,-0.062,-0.0632,-0.0633,-0.065,-0.0667,-0.067,-0.0684,-0.0731,-0.0745,-0.0781,-0.0796,-0.0892,-0.0885,-0.0852,-0.0989,-0.0937,-0.0944,-0.1002,-0.1016,-0.1028,-0.0953,-0.0844,0,0,0,0,0,-0.0603,-0.0608,-0.0624,-0.0628,-0.0632,-0.0653,-0.0659,-0.0679,-0.0717,-0.0736,-0.0783,-0.0838,-0.0917,-0.0943,-0.1002,-0.1058,-0.1026,-0.1103,-0.1115,-0.1125,-0.107,-0.1135,-0.1148,-0.1017,-0.1017,-0.1017,0,0,-0.0598,-0.0607,-0.061,-0.0626,-0.0638,-0.0667,-0.066,-0.0676,-0.0733,-0.0741,-0.0836,-0.0888,-0.0945,-0.1041,-0.1078,-0.104,-0.1144,-0.1131,-0.114,-0.1078,-0.1142,-0.1155,-0.1166,-0.1021,-0.102,-0.1019,0,0,-0.059,-0.06,-0.0602,-0.0622,-0.0643,-0.067,-0.0675,-0.0711,-0.0758,-0.083,-0.0891,-0.0961,-0.1044,-0.1115,-0.1157,-0.1253,-0.1219,-0.1283,-0.1268,-0.1336,-0.1346,-0.1355,-0.1317,-0.1322,-0.1273,-0.1273,-0.1273,0,-0.0583,-0.0603,-0.0604,-0.0622,-0.0653,-0.0675,-0.0709,-0.076,-0.0828,-0.0867,-0.0869,-0.1023,-0.1078,-0.1206,-0.1242,-0.128,-0.1268,-0.1219,-0.135,-0.1358,-0.1365,-0.1324,-0.1328,-0.1278,-0.1278,-0.1277,-0.1277,0,-0.0582,-0.0613,-0.0616,-0.0662,-0.0692,-0.0723,-0.0792,-0.0842,-0.0889,-0.0932,-0.105,-0.1127,-0.1175,-0.1256,-0.1271,-0.1372,-0.133,-0.1376,-0.131,-0.1384,-0.1336,-0.1339,-0.1286,-0.1284,-0.1282,-0.1281,0,0,-0.0544,-0.0605,-0.0611,-0.0655,-0.0725,-0.0751,-0.0847,-0.0926,-0.0966,-0.1051,-0.1112,-0.1253,-0.1227,-0.1267,-0.1327,-0.1395,-0.1448,-0.1384,-0.1385,-0.1333,-0.1517,-0.133,-0.1313,-0.1532,-0.1533,-0.1534,-0.1457,0,-0.0554,-0.0601,-0.0637,-0.072,-0.0762,-0.0825,-0.0897,-0.0974,-0.1034,-0.1097,-0.1188,-0.1231,-0.1259,-0.125,-0.134,-0.1435,-0.1458,-0.1457,-0.1458,-0.1454,-0.1273,-0.1313,-0.1539,-0.1458,-0.1458,-0.1458,-0.1458,0,-0.0546,-0.0594,-0.0664,-0.0761,-0.0779,-0.0823,-0.0922,-0.0978,-0.1066,-0.1085,-0.1128,-0.1162,-0.124,-0.1254,-0.1385,-0.1382,-0.1406,-0.1481,-0.1482,-0.1256,-0.1272,-0.1372,-0.1461,-0.1461,-0.1461,-0.1461,-0.146,0,-0.0526,-0.0616,-0.0681,-0.0719,-0.0821,-0.0856,-0.0883,-0.096,-0.0986,-0.1016,-0.1004,-0.1111,-0.1114,-0.1224,-0.1278,-0.1333,-0.1415,-0.152,-0.1367,-0.1352,-0.1499,-0.149,-0.1572,-0.1572,-0.1572,-0.1572,-0.1573,0,-0.0523,-0.0586,-0.0668,-0.0707,-0.0762,-0.0816,-0.0833,-0.0868,-0.0893,-0.0895,-0.0938,-0.0938,-0.1106,-0.1163,-0.1254,-0.1256,-0.1362,-0.1318,-0.1325,-0.154,-0.1537,-0.1498,-0.149,-0.1569,-0.157,-0.1571,-0.1571,0,-0.0498,-0.0556,-0.0645,-0.0739,-0.0752,-0.0772,-0.0759,-0.075,-0.0756,-0.0762,-0.0732,-0.0798,-0.082,-0.0956,-0.1104,-0.1155,-0.1224,-0.1185,-0.1292,-0.1314,-0.1125,-0.1125,-0.1042,-0.1035,-0.1029,-0.1024,-0.102,0,-0.0488,-0.0526,-0.0637,-0.0652,-0.0688,-0.0689,-0.066,-0.0662,-0.0639,-0.0663,-0.0661,-0.0656,-0.0695,-0.074,-0.0885,-0.0969,-0.0998,-0.0994,-0.1158,-0.1058,-0.1075,-0.1083,-0.109,-0.101,-0.1009,-0.1007,-0.1006,0,-0.048,-0.0524,-0.058,-0.0593,-0.0588,-0.0577,-0.0539,-0.0519,-0.0513,-0.0548,-0.0525,-0.054,-0.0557,-0.0646,-0.0645,-0.0749,-0.1006,-0.0933,-0.095,-0.1105,-0.1019,-0.1043,-0.1057,-0.0985,-0.0988,-0.099,-0.0991,0,-0.045,-0.0475,-0.0511,-0.053,-0.0511,-0.0472,-0.0466,-0.0419,-0.0395,-0.0452,-0.0427,-0.047,-0.0516,-0.052,-0.0558,-0.0584,-0.0658,-0.0728,-0.0758,-0.0783,-0.0743,-0.0597,-0.0402,0,0,0,0,0,-0.0403,-0.041,-0.0426,-0.0439,-0.0416,-0.0414,-0.039,-0.0384,-0.0409,-0.0368,-0.0399,-0.0393,-0.041,-0.0425,-0.0418,-0.0486,-0.0675,-0.0478,-0.0776,-0.0869,-0.0893,-0.0875,0,0,0,0,0,0,-0.0367,-0.0371,-0.0409,-0.0353,-0.0342,-0.0296,-0.0292,-0.032,-0.0293,-0.0338,-0.0334,-0.0376,-0.0387,-0.041,-0.0413,-0.0424,-0.0606,-0.0505,-0.0504,-0.0855,-0.0877,-0.0896,-0.0886,0,0,0,0,0]},{"header":{"parameterUnit":"m.s-1","parameterCategory":2,"la1":30.2991,"la2":30.254,"lo1":-89.0895,"lo2":-89.0444,"dx":0.0017,"dy":0.0017,"nx":28,"ny":28,"refTime":"2023-01-30T15:00:00:Z","depth":"4","parameterNumber":3,"parameterNumberName":"V-component_of_CURRENTS"},"data":[0,0,0,0,0,0,0,0,0,0,0,0,0,0,0,0,0,0,0,0,0,0,0,0,0,0,0,0,0,0,0,0,0,0,0,0,0,0,0,0,0,0,0,0,0,0,0,0,0,0,0,0,0,0,0,0,0,0,0.0416,0.0415,0,0.0338,0.0337,0.0336,0.0353,0.0354,0.0356,0.0357,0.0325,0.0323,0.0321,0,0,0,0,0,0,0,0,0,0,0,0,0,0.0462,0.0462,0.0416,0.0415,0.0414,0.0338,0.0337,0.0336,0.0352,0.0354,0.0356,0.0358,0.0326,0.0323,0.032,0,0,0,0,0,0,0,0,0,0,0,0,0,0.0419,0.0462,0.0416,0.0414,0.0413,0.0338,0.0337,0.0335,0.0352,0.0354,0.0357,0.0359,0.0327,0.0323,0.032,0.0255,0,0,0.031,0.0308,0,0,0,0,0,0,0,0,0.0421,0.0417,0.0415,0.0414,0.0412,0.0358,0.0341,0.0311,0.0351,0.0375,0.0357,0.036,0.0339,0.0334,0.0314,0.0253,0.0252,0.0309,0.0307,0.0306,0.0305,0,0,0,0,0,0,0,0.0424,0.042,0.0385,0.0414,0.0412,0.0376,0.0373,0.0334,0.0346,0.0373,0.0374,0.0365,0.0339,0.0317,0.0313,0.0251,0.0309,0.0307,0.0304,0.0303,0.0234,0.0234,0,0,0,0,0,0,0.0438,0.0423,0.0387,0.0383,0.0423,0.0374,0.0371,0.0373,0.0345,0.0343,0.0363,0.0366,0.0321,0.0317,0.0312,0.0339,0.0306,0.0303,0.0301,0.0234,0.0234,0.0234,0,0,0,0,0,0,0.044,0.0436,0.0391,0.04,0.0392,0.0371,0.0373,0.037,0.0364,0.0337,0.0336,0.0362,0.0323,0.0317,0.0298,0.0334,0.0301,0.0298,0.0234,0.0234,0.0234,0.0325,0,0,0,0,0,0,0.0441,0.0437,0.0446,0.0402,0.0392,0.0349,0.0371,0.0367,0.0354,0.0357,0.0335,0.0334,0.0324,0.0303,0.0295,0.0329,0.0296,0.0233,0.0234,0.0234,0.0322,0.0329,0.0334,0,0,0,0,0,0.0444,0.0438,0.0447,0.0443,0.0405,0.0348,0.0339,0.0331,0.0352,0.0337,0.0339,0.0336,0.03,0.03,0.029,0.0325,0.0233,0.0234,0.0234,0.0319,0.0327,0.0334,0,0,0,0,0,0,0.0462,0.0438,0.0447,0.0437,0.0401,0.0352,0.0341,0.0332,0.0316,0.0338,0.0321,0.0318,0.0317,0.0293,0.0293,0.0304,0.0272,0.027,0.034,0.0347,0.0353,0.0351,0.0293,0,0,0,0,0,0.047,0.0464,0.0429,0.042,0.041,0.0378,0.0359,0.0352,0.0329,0.0326,0.032,0.0315,0.0303,0.0306,0.0281,0.0275,0.0251,0.0293,0.0299,0.0305,0.0295,0.0277,0.0281,0.0236,0.0236,0.0236,0,0,0.0475,0.046,0.0459,0.0424,0.0405,0.0377,0.0373,0.0348,0.035,0.0323,0.0338,0.0324,0.03,0.0306,0.0306,0.03,0.0311,0.0305,0.0311,0.0297,0.0278,0.0282,0.0286,0.0236,0.0236,0.0236,0,0,0.0461,0.0473,0.0458,0.043,0.0401,0.0382,0.0378,0.0347,0.0366,0.0364,0.0357,0.0351,0.0345,0.033,0.0324,0.0335,0.0334,0.0354,0.0398,0.0382,0.0386,0.0389,0.0397,0.04,0.0371,0.0371,0.0372,0,0.0474,0.0463,0.044,0.0413,0.0415,0.0389,0.0383,0.0372,0.0346,0.0358,0.0389,0.0358,0.0353,0.0331,0.0371,0.035,0.0358,0.038,0.0392,0.0394,0.0396,0.0402,0.0404,0.0376,0.0375,0.0375,0.0375,0,0.0436,0.0442,0.0431,0.0409,0.0394,0.0385,0.0376,0.038,0.0419,0.0407,0.0414,0.0399,0.0383,0.0396,0.0408,0.0413,0.0423,0.0395,0.038,0.0406,0.0412,0.0412,0.0382,0.0381,0.0379,0.0378,0,0,0.0445,0.0419,0.0424,0.044,0.0413,0.0402,0.0412,0.0411,0.0403,0.0424,0.0417,0.0442,0.0434,0.0423,0.0417,0.0427,0.048,0.0452,0.0449,0.0472,0.0484,0.0418,0.0412,0.0478,0.0478,0.0478,0.0496,0,0.0443,0.0431,0.0418,0.043,0.0435,0.0437,0.0443,0.0435,0.0432,0.0405,0.0411,0.04,0.0443,0.0456,0.0468,0.0447,0.0481,0.0479,0.0443,0.0442,0.0389,0.0409,0.0477,0.0496,0.0496,0.0496,0.0496,0,0.0415,0.0427,0.0465,0.048,0.0486,0.0511,0.0528,0.0515,0.0457,0.0458,0.043,0.0394,0.0402,0.0436,0.0446,0.0457,0.05,0.0497,0.0497,0.0395,0.0374,0.0453,0.0497,0.0497,0.0497,0.0497,0.0497,0,0.0444,0.0456,0.0521,0.0526,0.0534,0.0601,0.0614,0.0567,0.0536,0.0492,0.044,0.0415,0.0398,0.0436,0.0418,0.0476,0.0391,0.0454,0.0429,0.0426,0.0442,0.0438,0.048,0.048,0.048,0.048,0.048,0,0.0438,0.0473,0.0574,0.0601,0.068,0.0681,0.0708,0.069,0.0614,0.0515,0.0494,0.0384,0.0407,0.0326,0.0383,0.0362,0.0366,0.0431,0.0417,0.0484,0.0484,0.0444,0.044,0.0481,0.0481,0.0481,0.048,0,0.0418,0.0479,0.0546,0.0648,0.0697,0.0762,0.0774,0.0719,0.069,0.055,0.0544,0.0386,0.0322,0.0275,0.0268,0.0293,0.029,0.0284,0.0327,0.0314,0.0379,0.0379,0.0347,0.0345,0.0343,0.0341,0.034,0,0.0398,0.045,0.0595,0.0649,0.0724,0.081,0.081,0.0788,0.0675,0.0511,0.0398,0.0305,0.0211,0.013,0.0122,0.0179,0.0199,0.0214,0.0363,0.0372,0.0361,0.0364,0.0367,0.0337,0.0336,0.0335,0.0335,0,0.0369,0.0455,0.0508,0.0623,0.0704,0.0723,0.0724,0.0654,0.0545,0.0497,0.03,0.0251,0.0124,0.0103,0.0086,0.0133,0.0214,0.0196,0.0205,0.0347,0.0358,0.035,0.0356,0.0328,0.0329,0.033,0.033,0,0.0366,0.0404,0.05,0.0598,0.0651,0.0648,0.0647,0.0545,0.0477,0.0301,0.0219,0.0135,0.0072,0.007,0.0037,0.007,0.018,0.0259,0.0268,0.0276,0.024,0.0243,0.016,0,0,0,0,0,0.0381,0.0426,0.046,0.0567,0.0577,0.063,0.0561,0.0518,0.0412,0.0284,0.0272,0.0169,0.0143,0.0077,0.0123,0.0055,0.0183,0.011,0.028,0.0289,0.0297,0.0259,0,0,0,0,0,0,0.0405,0.0444,0.0455,0.0504,0.0558,0.0565,0.0535,0.0454,0.0368,0.0278,0.0251,0.0231,0.0188,0.016,0.0151,0.0146,0.0269,0.0086,0.0088,0.0284,0.0292,0.0298,0.0261,0,0,0,0,0]}]]